OBJECT F, 65549

Orbit data source: Space-Track

You're viewing an Uncataloged Satellite

Recently launched and/or uncataloged satellites may have evolving metadata. Metadata may include but not limited to: Owner, Maufacturer, Bus, Motor, and Mission.

OBJECT F, 65549 is a satellite owned by CNSA (CN) in LEO that was launched on Sat, 06 Sep 2025 UTC launched from the Taiyaun Space Center, China (TSC). Unknown objects in Earth's orbit typically refer to objects detected orbiting the Earth but have not yet been identified or cataloged. These objects could be anything from previously untracked satellites, spent rocket stages, debris from satellite collisions, or even natural meteoroids temporarily captured by Earth's gravity.

Loading next visibility...
Identifier
65549, 2025-199F
Orbit
LEO
Country
Flag of CNCN / PRC
Related business
Manufacturer
SAST
Mission
Spacecraft
Bus & Motor
CZ-6A STAGE 2, YF-115
Mass
~6,000 kg wet, ~6,000 kg dry
Launch date (UTC)
2025-09-06 (9 months ago)
Launch vehicle
Unknown
Launch site
Taiyaun Space Center, China (TSC)
Object type
Unknown
Shape & HBR
Unknown shape, 1.1 m
Radar Cross Section
Large (>1 m²)

Expand to show TLE details & history
Last TLE update: 12 hours ago

TLE from 12 hours ago
0 OBJECT F
1 65549U 25199F   26171.35161556  .00000284  00000-0  47167-4 0  9997
2 65549  86.0109  32.2018 0068209 171.1153 189.1284 14.64384604 41946
Epoch: 2026-06-20T08:26Z
TLE epoch observation values (Epoch: 2026-06-20T08:26:19.584Z)
Latitude
-0.0001°
Longitude
-2.94729°
Altitude
729.686 km
Speed
7.465 km/s
True Right ascension
02h 08m 48s
True Declination
0° 00' 00"
Sunlit
Object was in daylight at epoch
Visualization orbit readout
Latitude
Unknown
Longitude
Unknown
Altitude
Unknown
Speed
Unknown
Apparent Right ascension
Unknown
Apparent Declination
Unknown
Sunlit
N/A
Visualization observer readout
Local Sidereal Time
07:20:14
Azimuth
Unknown
Elevation
Unknown
Doppler factor
Unknown
Orbital elements
Apogee altitude
724.097 km
Perigee altitude
627.866 km
Semi-major axis
7,054.119 km
Eccentricity
0.00682
Inclination
86.0109°
RAAN
32.2018°
Arg. of periapsis
171.1153°
True anomaly
189.00543°
Mean anomaly
189.1284°
Eccentric anomaly
189.06681°
Mean motion
3.66335 °/min
Orbital period
98.27 mins
BSTAR
0.000047167
Loading maneuver chart data...
Computing Atmospheric mass density...
Loading historical data...
Loading historical data...
Loading historical data...
Loading historical data...
Loading historical data...
Loading historical data...
Loading historical data...
Other satellites on launch #199 in the year 2025 (2025-09-06 UTC)

Documentation

Showing up to 5 results
|